Regional Weather Roundup
Issued by NWS

Home | Current Version | Previous Version | Graphics & Text | Print | Product List | Glossary On
Versions: 1 2 3 4 5 6 7 8 9 10 11 12 13 14 15 16 17 18 19 20 21 22 23 24 25 26 27 28 29 30 31 32 33 34 35 36 37 38 39 40 41 42 43 44 45 46 47 48 49 50
104
ASUS45 KSLC 241610
RWRUT

UTAH REGIONAL WEATHER ROUNDUP
NATIONAL WEATHER SERVICE SALT LAKE CITY UT
1000 AM MDT SUN JUL 24 2016

UTZ001>011-023>025-241700-

NORTHERN UTAH

CITY           SKY/WX    TMP DP  RH WIND       PRES   REMARKS
BRIGHAM CITY     N/A     73  27  17 CALM      30.14S
HILL AFB       SUNNY     72  33  23 E15       30.16R
LOGAN          SUNNY     69  33  26 VRB5      30.18S
OGDEN          SUNNY     76  35  22 NW7       30.13S
PROVO AIRPORT  SUNNY     73  43  33 CALM      30.15S
SALT LAKE CITY MOSUNNY   80  37  21 CALM      30.12S
VERNAL         SUNNY     80  23  12 VRB3      30.17S
WENDOVER       SUNNY     77  36  22 S6        30.16R
HEBER CITY     SUNNY     64  32  29 CALM      30.23S

$$

UTZ012>022-026-027-241700-

SOUTHERN/CENTRAL UTAH

CITY           SKY/WX    TMP DP  RH WIND       PRES   REMARKS
BLANDING       SUNNY     82  42  23 S6        30.29S
BRYCE CANYON   SUNNY     78  35  21 NW5       30.35S
CEDAR CITY     SUNNY     80  40  23 N6        30.19R
DELTA          SUNNY     77  27  15 CALM      30.16R
MILFORD        SUNNY     81  27  14 N9        30.16S
MOAB/CYNLANDS  SUNNY     89  40  17 SE9       30.07S
PRICE          SUNNY     82  34  17 S5        30.20R
ST GEORGE      SUNNY     91  45  19 CALM      29.99S

$$

REGIONAL REPORTS     COLORADO/ARIZONA

CITY           SKY/WX    TMP DP  RH WIND       PRES   REMARKS
CRAIG, CO      SUNNY     76  42  29 E7        30.25F
GRAND JUNCTION SUNNY     85  43  22 SE16      30.13F
RIFLE          SUNNY     81  43  26 E7        30.20F
MONTROSE       SUNNY     82  44  26 CALM      30.22F
CORTEZ         SUNNY     83  43  24 SW12      30.21S
PAGE, AZ       SUNNY     91  40  16 N3        30.06S
GRAND CANYON   SUNNY     82  48  30 SW7       30.30S
KINGMAN        SUNNY     90  53  28 SW13      30.05R
FLAGSTAFF      SUNNY     76  52  43 S13       30.33R

$$

REGIONAL REPORTS    NEVADA/IDAHO/WYOMING

CITY           SKY/WX    TMP DP  RH WIND       PRES   REMARKS
LAS VEGAS, NV  SUNNY     96  41  15 VRB3      29.85R HX  92
ELY            SUNNY     69  26  20 NE5       30.26S
ELKO           SUNNY     70  30  22 CALM      30.20S
POCATELLO, ID  SUNNY     72  31  22 VRB6      30.20R
BURLEY         SUNNY     69  38  32 CALM      30.17R
EVANSTON, WY   SUNNY     70  29  21 CALM      30.32S
ROCK SPRINGS   SUNNY     70  34  26 NE6       30.30S
KEMMERER         N/A     72  25  17 SW3       30.33F

$$




USA.gov is the U.S. government's official web portal to all federal, state and local government web resources and services.